Location: NJAA Observatory
(40.6819°N, 74.8979°W)
Time: 08:18:28
(UTC-04:00)

S-56A Canister/Altair - Visible Passes

Search period start: 24 September 2017 00:00
Search period end: 04 October 2017 00:00
Orbit: 635 x 2498 km, 38.9° (Epoch: 23 September)

Date Brightness Start Highest point End Pass type
(mag) Time Alt. Az. Time Alt. Az. Time Alt. Az.
24 Sep 10.5 01:25:38 37° E 01:25:38 37° E 01:33:13 10° E visible
24 Sep 9.6 03:23:06 69° WSW 03:25:10 78° SSW 03:40:25 10° ESE visible
24 Sep 10.2 05:20:34 18° W 05:31:30 51° SSW 05:45:25 10° SE visible
25 Sep 11.0 00:55:16 23° E 00:55:16 23° E 00:59:37 10° E visible
25 Sep 9.6 02:52:45 77° SSE 02:52:45 77° SSE 03:07:01 10° ESE visible
25 Sep 10.0 04:50:13 29° W 04:58:12 55° SSW 05:12:31 10° SE visible
26 Sep 11.4 00:25:01 13° E 00:25:01 13° E 00:25:59 10° E visible
26 Sep 10.0 02:22:30 56° ESE 02:22:30 56° ESE 02:33:32 10° ESE visible
26 Sep 9.9 04:19:59 43° WSW 04:24:54 58° SSW 04:39:31 10° SE visible
26 Sep 10.7 06:18:59 10° W 06:30:10 28° SW 06:41:25 10° S visible
26 Sep 10.2 21:28:58 10° SSW 21:29:44 13° SSW 21:29:44 13° SSW visible
27 Sep 10.5 01:52:24 37° ESE 01:52:24 37° ESE 02:00:00 10° E visible
27 Sep 9.7 03:49:53 58° SW 03:51:36 61° SSW 04:06:23 10° SE visible
27 Sep 10.6 05:47:23 15° W 05:57:04 31° SW 06:09:04 10° SSE visible
27 Sep 9.7 20:57:12 10° SSW 20:59:39 20° S 20:59:39 20° S visible
28 Sep 11.1 01:22:23 22° E 01:22:23 22° E 01:26:25 10° E visible
28 Sep 9.8 03:19:54 62° S 03:19:54 62° S 03:33:09 10° SE visible
28 Sep 10.4 05:17:24 24° W 05:23:56 34° SW 05:36:32 10° SSE visible
28 Sep 9.5 20:25:36 10° S 20:29:29 22° SSE 20:29:29 22° SSE visible
28 Sep 10.5 22:26:19 10° SW 22:26:58 13° SW 22:26:58 13° SW visible
29 Sep 11.5 00:52:30 11° E 00:52:30 11° E 00:52:48 10° E visible
29 Sep 10.2 02:50:01 46° SE 02:50:01 46° SE 02:59:50 10° ESE visible
29 Sep 10.2 04:47:31 34° WSW 04:50:47 37° SW 05:03:51 10° SSE visible
29 Sep 9.6 19:54:13 10° S 19:58:17 18° SE 19:59:13 17° ESE visible
29 Sep 9.7 21:54:11 10° SW 21:56:42 26° SW 21:56:42 26° SW visible
30 Sep 10.7 02:20:12 30° SE 02:20:12 30° SE 02:26:25 10° ESE visible
30 Sep 10.1 04:17:42 40° SW 04:17:42 40° SW 04:31:01 10° SSE visible
30 Sep 11.0 06:16:09 10° WSW 06:22:17 14° SW 06:28:36 10° SSW visible
30 Sep 9.8 19:23:14 10° SSE 19:26:00 13° SE 19:28:52 11° ESE visible
30 Sep 9.0 21:22:08 10° SW 21:26:20 40° SSW 21:26:20 40° SSW visible
01 Oct 11.3 01:50:25 17° ESE 01:50:25 17° ESE 01:52:56 10° ESE visible
01 Oct 10.3 03:47:56 38° S 03:47:56 38° S 03:58:04 10° SSE visible
01 Oct 10.9 05:45:27 15° WSW 05:49:19 16° SW 05:57:12 10° SSW visible
01 Oct 8.7 20:50:08 10° SW 20:55:52 44° SSE 20:55:52 44° SSE visible
01 Oct 10.5 22:52:36 10° WSW 22:53:19 14° WSW 22:53:19 14° WSW visible
02 Oct 10.7 03:18:10 30° SSE 03:18:10 30° SSE 03:25:00 10° SE visible
02 Oct 10.8 05:15:41 19° SW 05:16:20 19° SW 05:25:19 10° S visible
02 Oct 8.7 20:18:13 10° SSW 20:23:36 37° SE 20:25:18 33° ESE visible
02 Oct 9.9 22:20:22 10° WSW 22:22:46 26° WSW 22:22:46 26° WSW visible
03 Oct 11.1 02:48:23 19° SE 02:48:23 19° SE 02:51:50 10° SE visible
03 Oct 10.8 04:45:54 20° SSW 04:45:54 20° SSW 04:53:08 10° S visible
03 Oct 8.9 19:46:22 10° SSW 19:51:14 31° SE 19:54:41 21° E visible
03 Oct 9.1 21:48:11 10° WSW 21:52:07 43° WSW 21:52:07 43° WSW visible
